Japan Airlines Virtual Airport Information Service

Tokyo Haneda International Airport

ICAO: RJTT Country: Japan
Latitude: 35.5522 Longitude: 139.78
Latest Arrival : JAL5 (KJFK-RJTT) Latest Departure : SCC6 (RJTT-KLAX)


WX CaptureLIVE
Data provided by noaa.gov | Fetched at 15:49:56

METAR : RJTT 041530Z 34022KT 9999 FEW030 10/M01 Q1019 TEMPO 34022G32KT RMK 1CU030 A3010

TAF : RJTT 041105Z 0412/0518 34020KT 9999 FEW030 TEMPO 0412/0418 34022G32KT BECMG 0422/0500 05010KT BECMG 0503/0506 08010KT BECMG 0512/0515 35010KT


Runway Data for RJTT
Data provided by openaviationdata.com

Runway ID Mag Var Hdg Length Elevation Surface ILS Freq ILS Id ILS Slope
4 -7 41° 8208 ft 21 ft Asphalt -- -- --
16L -7 156° 9851 ft 21 ft Asphalt -- -- --
16R -7 156° 9851 ft 21 ft Asphalt -- -- --
22 -7 221° 8208 ft 21 ft Asphalt 108.1 IAD 3
34L -7 336° 9851 ft 21 ft Asphalt 111.7 IHA 3
34R -7 336° 9851 ft 21 ft Asphalt 108.9 ITC 3

Tokyo Haneda International Airport, Japan
Use only for reference purposes



Not for navigational purposes.